Wind_Speed
77 79 80 82 83 85 86 88 90 92 94 96 98 100 102 103 104 106 107 108 110 111 112 113 115 116 117 119 120 120 121 122 122 122 122 122 122 123 123 122 122 122
79 80 82 84 86 88 90 92 94 96 98 100 102 104 105 106 108 109 110 111 113 115 116 118 119 120 121 121 122 122 122 123 123 123 123 123 123 124 124 124 124 124
81 82 84 87 89 91 93 96 98 100 102 104 106 107 108 109 110 112 113 115 117 118 120 121 121 122 122 123 123 123 124 124 124 125 125 125 126 126 127 127 126 127
83 85 87 90 92 95 97 99 101 103 105 107 108 110 111 112 114 115 117 118 120 121 121 122 122 123 124 124 125 125 126 127 127 128 128 127 128 127 127 127 126 126
86 88 90 93 95 98 100 102 104 106 107 109 110 112 113 115 117 118 119 120 121 122 122 123 124 125 126 127 128 128 129 129 129 129 128 126 125 124 123 122 121 119
89 91 94 96 99 101 103 105 106 108 109 111 112 114 116 118 119 120 121 121 122 123 124 125 126 127 128 129 129 129 128 127 126 125 123 120 118 116 115 113 111 109
92 95 97 100 102 103 105 106 108 109 111 113 115 116 118 119 120 121 122 123 124 125 127 127 128 128 128 128 126 125 123 122 120 117 115 113 110 108 106 104 103 101
95 98 100 102 103 105 106 108 109 111 113 114 116 117 118 119 120 122 123 125 126 127 127 127 126 125 123 121 119 117 115 113 111 110 107 105 103 101 99 98 96 94
98 100 101 103 104 105 107 109 111 112 114 115 116 117 119 121 122 124 124 125 125 124 123 121 119 117 114 113 111 109 107 105 104 102 100 99 97 95 93 92 90 88
99 100 102 103 105 107 108 110 112 113 114 116 117 119 121 122 123 123 122 120 119 117 114 112 110 108 106 105 104 102 101 99 98 96 95 93 91 90 88 86 84 82
99 101 102 104 106 108 109 111 112 114 116 117 119 120 120 120 118 116 114 112 110 107 105 103 102 100 99 98 98 97 96 95 93 92 91 89 87 86 84 83 80 78
100 102 103 105 107 109 110 112 113 115 117 118 118 117 115 112 110 107 105 102 100 98 97 96 95 94 93 93 92 92 92 91 90 89 88 87 85 83 81 79 77 75
101 103 105 106 108 110 111 113 114 115 115 114 112 109 106 103 100 98 95 93 91 90 88 87 86 85 85 85 85 85 85 84 84 84 83 82 81 80 78 76 74 72
103 104 106 107 109 111 112 113 113 112 110 107 103 100 96 93 91 88 85 82 79 76 74 72 72 72 73 73 73 74 75 75 75 75 75 75 75 74 73 73 71 70
103 105 106 108 110 111 111 110 108 104 101 97 93 90 87 84 81 76 71 65 60 58 57 57 58 59 60 61 62 63 64 65 66 66 67 66 66 66 66 67 68 67
104 105 107 109 109 108 106 103 99 94 91 87 84 80 77 72 65 58 52 47 45 46 48 50 51 52 53 54 55 55 55 55 56 57 58 58 58 58 58 60 62 63
104 106 107 107 105 102 98 93 89 85 81 78 74 69 62 55 47 43 40 40 41 43 45 47 48 50 51 53 54 54 53 51 49 49 50 50 51 52 52 53 55 56
105 105 103 100 96 92 88 84 80 76 73 67 60 53 45 40 37 37 37 38 39 42 44 45 46 48 50 51 53 54 54 53 51 48 46 46 46 47 47 48 49 51
104 100 95 90 87 83 79 75 71 67 61 52 43 38 35 34 35 35 36 37 38 40 42 44 45 46 48 49 50 52 53 54 53 52 49 47 45 44 44 44 44 46
97 90 85 82 78 74 70 67 62 54 44 36 33 32 32 32 33 34 35 36 36 38 40 42 44 44 46 47 48 50 51 52 52 53 52 51 49 45 43 41 40 41
86 80 77 74 70 66 61 56 48 38 31 30 30 30 30 31 32 33 34 34 35 36 37 40 43 43 44 46 47 47 49 50 50 51 51 52 51 50 48 44 41 39
77 73 70 67 62 56 49 41 34 29 27 28 29 29 30 30 31 32 33 33 33 34 35 38 41 43 43 44 45 45 47 48 48 49 49 50 50 50 49 48 46 43
70 67 63 58 50 42 35 31 27 26 26 27 27 29 30 30 30 31 33 33 33 34 34 36 39 42 42 43 44 44 45 46 46 47 47 47 48 48 48 47 47 45
64 60 54 45 36 30 28 27 26 25 26 26 27 28 29 30 30 31 34 35 34 34 35 35 37 40 41 42 43 44 44 44 45 45 46 46 46 46 46 45 44 44
57 50 40 31 26 25 26 26 25 25 26 26 27 28 29 30 31 31 34 37 37 36 37 36 36 39 40 41 42 43 43 44 44 44 45 45 45 44 44 44 43 42
46 36 28 23 23 24 25 25 25 25 26 26 27 28 30 31 32 33 35 38 40 40 40 39 38 39 40 41 42 43 43 43 43 44 44 45 45 45 44 44 43 42
Wind_Direction
294 295 295 295 295 296 296 296 296 296 297 297 297 297 297 297 296 296 296 295 295 295 294 294 294 293 293 293 292 292 291 291 290 290 289 289 288 288 287 286 285 285
295 295 296 296 296 297 297 297 298 298 298 298 298 298 297 297 297 296 296 296 296 296 295 295 295 294 294 294 293 293 292 292 291 291 290 289 289 288 288 287 286 286
296 296 297 297 298 298 299 299 299 299 299 299 298 298 298 297 297 297 297 297 297 296 296 296 296 295 295 294 294 293 293 292 292 291 291 290 289 289 288 288 287 287
296 297 298 299 299 300 300 300 300 300 299 299 299 299 299 298 298 298 298 298 297 297 297 297 296 296 295 295 294 294 293 293 292 291 291 290 290 289 289 288 287 287
298 299 299 300 300 300 300 300 300 300 300 300 299 299 299 299 299 299 299 298 298 298 298 297 297 296 296 295 295 294 293 293 292 291 291 290 290 289 288 288 287 286
299 300 300 300 300 300 300 300 300 300 300 300 300 300 300 300 300 300 299 299 299 298 298 298 297 297 296 296 295 294 294 293 292 291 291 290 289 288 288 287 286 286
300 300 300 300 301 301 301 300 300 300 300 301 301 301 301 301 301 300 300 300 299 299 299 298 298 297 296 296 295 294 293 293 292 291 290 290 289 288 287 287 286 285
301 301 301 301 301 301 301 301 301 301 301 302 302 302 302 301 301 301 301 300 300 299 299 298 298 297 296 295 295 294 293 293 292 291 291 290 289 288 287 286 286 285
301 301 301 301 301 302 302 302 302 302 302 303 303 303 302 302 302 302 301 301 300 300 299 299 298 297 297 296 295 294 294 293 292 292 291 290 289 289 288 287 286 286
301 301 302 302 302 303 303 303 303 303 304 304 304 303 303 303 303 302 302 302 301 301 300 299 299 298 297 297 296 295 294 293 292 292 291 290 290 289 288 288 287 287
302 302 303 303 303 304 304 304 304 304 304 304 304 304 304 304 303 303 303 302 302 301 301 300 300 299 298 297 297 296 295 294 293 292 291 290 289 289 288 287 287 286
303 303 304 304 304 305 305 305 305 305 305 305 305 305 305 304 304 304 303 303 303 303 303 302 301 300 299 298 297 296 295 294 293 292 291 290 289 288 288 287 286 285
304 304 305 305 305 306 306 306 306 306 306 306 306 306 305 305 305 305 305 305 305 305 305 304 304 302 301 300 299 297 296 295 293 292 291 290 289 288 287 286 285 284
305 305 306 306 306 306 306 306 306 306 307 307 306 306 306 306 306 307 307 308 309 310 310 310 309 308 307 305 303 301 300 298 296 294 292 290 289 287 286 284 283 282
306 306 306 306 306 306 307 307 307 307 307 307 307 307 307 307 309 310 312 314 317 319 321 322 322 322 320 317 314 310 307 304 301 299 296 293 291 289 286 284 282 281
306 307 307 307 307 307 308 308 308 307 307 307 307 308 309 310 313 316 321 326 330 332 334 337 339 340 339 336 333 328 323 318 313 309 304 299 295 291 288 285 283 281
307 307 307 308 308 308 308 308 308 308 308 308 309 310 312 315 319 324 330 335 337 338 340 343 347 348 349 350 349 347 344 339 331 323 316 310 303 297 292 288 285 282
307 308 308 308 308 308 308 308 308 308 309 310 311 313 317 321 326 330 334 337 339 339 340 344 348 350 351 354 355 356 355 354 349 342 334 325 317 310 303 296 290 285
308 309 309 309 309 309 308 308 309 309 311 312 314 317 321 325 328 331 335 338 339 339 340 342 347 350 351 353 356 357 358 360 359 357 353 345 337 328 319 310 302 294
310 310 309 309 309 309 309 309 309 311 313 315 317 320 323 327 330 332 334 338 340 340 339 341 346 350 351 353 355 356 357 359 1 2 2 0 356 350 340 330 319 309
310 310 310 309 309 309 309 309 310 313 316 317 319 322 324 328 330 331 334 337 339 340 340 340 344 348 350 352 354 355 356 358 359 0 3 4 4 3 360 353 344 333
311 310 310 309 309 309 309 310 312 316 317 318 320 322 324 328 331 331 334 338 340 341 342 341 342 346 349 350 352 354 355 356 357 358 360 2 3 5 6 5 3 358
311 310 310 309 309 309 308 310 314 316 317 318 321 322 324 327 331 331 333 337 340 341 343 343 341 343 346 348 349 352 353 354 355 356 357 359 0 1 3 5 6 6
310 310 310 309 308 307 308 310 314 316 317 319 321 322 323 327 331 332 332 335 339 340 342 344 343 342 344 346 347 349 351 352 353 354 354 355 357 358 359 1 2 4
310 310 309 307 306 307 308 310 312 314 316 318 321 322 324 326 330 333 332 333 336 339 340 343 343 342 343 344 345 346 348 350 350 351 352 352 353 354 355 356 357 359
310 309 307 306 306 307 307 308 311 313 314 318 321 322 323 326 329 332 333 332 334 336 338 340 342 342 342 343 344 344 346 347 348 349 350 349 349 350 351 351 352 353
Height
5621 5617 5614 5610 5607 5603 5599 5595 5591 5587 5582 5578 5574 5570 5565 5561 5556 5552 5547 5542 5537 5532 5527 5523 5518 5513 5509 5504 5499 5495 5490 5486 5482 5478 5476 5472 5466 5462 5460 5457 5453 5450
5612 5608 5604 5600 5596 5592 5588 5584 5579 5575 5570 5565 5561 5557 5552 5547 5542 5538 5533 5528 5523 5517 5511 5506 5501 5496 5492 5487 5482 5477 5472 5468 5464 5459 5456 5453 5448 5443 5439 5436 5434 5430
5603 5599 5595 5590 5586 5581 5577 5572 5567 5562 5557 5552 5547 5543 5538 5533 5528 5523 5518 5513 5508 5502 5496 5490 5485 5479 5474 5469 5465 5460 5454 5449 5445 5441 5437 5434 5429 5424 5420 5416 5414 5410
5594 5590 5585 5580 5575 5570 5566 5561 5555 5550 5545 5539 5533 5528 5524 5519 5513 5508 5503 5497 5491 5486 5480 5474 5468 5462 5456 5451 5446 5441 5436 5431 5426 5421 5418 5415 5410 5405 5401 5396 5394 5391
5584 5580 5575 5569 5565 5560 5555 5549 5544 5538 5532 5526 5520 5515 5509 5504 5498 5493 5487 5482 5475 5469 5463 5457 5451 5445 5438 5433 5428 5422 5416 5412 5407 5401 5398 5396 5391 5386 5381 5377 5374 5371
5573 5569 5564 5559 5554 5549 5543 5538 5532 5526 5520 5514 5508 5502 5496 5490 5484 5478 5472 5466 5459 5452 5446 5440 5433 5427 5421 5414 5409 5403 5397 5392 5387 5382 5378 5376 5372 5368 5363 5358 5355 5353
5563 5558 5553 5548 5542 5537 5531 5525 5519 5513 5507 5501 5495 5488 5482 5476 5469 5462 5456 5449 5443 5436 5429 5423 5416 5410 5403 5396 5390 5384 5378 5372 5368 5364 5360 5356 5353 5350 5346 5341 5338 5336
5553 5548 5542 5537 5531 5525 5518 5512 5506 5500 5494 5488 5482 5474 5467 5460 5454 5447 5440 5433 5426 5419 5412 5406 5399 5392 5385 5378 5372 5366 5361 5355 5349 5345 5343 5339 5335 5332 5329 5324 5322 5320
5542 5537 5531 5525 5519 5513 5506 5500 5493 5487 5481 5474 5468 5460 5453 5445 5438 5432 5425 5417 5410 5403 5396 5389 5381 5374 5367 5360 5354 5349 5344 5339 5334 5329 5326 5322 5319 5316 5313 5309 5307 5306
5531 5526 5520 5513 5507 5500 5494 5487 5480 5473 5467 5460 5453 5446 5439 5431 5424 5416 5409 5402 5394 5387 5380 5373 5365 5358 5351 5345 5338 5333 5328 5324 5319 5314 5310 5307 5304 5301 5298 5295 5293 5292
5520 5514 5508 5501 5494 5488 5481 5474 5467 5460 5453 5446 5439 5432 5425 5417 5409 5402 5394 5387 5380 5373 5366 5359 5351 5344 5337 5331 5324 5318 5313 5309 5304 5300 5296 5292 5290 5287 5284 5282 5280 5279
5509 5503 5496 5489 5482 5475 5468 5461 5455 5448 5440 5433 5426 5419 5412 5404 5396 5388 5381 5374 5368 5360 5353 5346 5339 5331 5324 5318 5311 5304 5299 5294 5289 5285 5282 5278 5276 5273 5271 5270 5267 5265
5498 5491 5484 5477 5470 5463 5456 5449 5442 5435 5428 5421 5413 5406 5398 5391 5384 5377 5370 5364 5357 5350 5342 5335 5327 5319 5312 5305 5298 5291 5286 5281 5276 5271 5268 5265 5262 5260 5258 5256 5254 5251
5486 5480 5472 5465 5458 5451 5444 5438 5430 5423 5416 5408 5401 5394 5386 5380 5374 5368 5362 5355 5348 5341 5333 5325 5317 5309 5302 5295 5288 5280 5274 5269 5264 5259 5255 5252 5249 5247 5245 5243 5241 5239
5475 5468 5461 5454 5447 5440 5433 5426 5419 5411 5404 5397 5390 5384 5377 5371 5365 5360 5355 5349 5342 5334 5326 5318 5311 5303 5295 5287 5279 5272 5265 5259 5254 5249 5244 5241 5238 5235 5233 5230 5228 5227
5465 5458 5450 5442 5435 5428 5421 5414 5408 5401 5394 5388 5382 5375 5369 5364 5359 5353 5349 5344 5337 5330 5322 5315 5307 5299 5291 5282 5273 5266 5260 5253 5247 5241 5235 5231 5228 5224 5221 5219 5217 5216
5455 5447 5439 5431 5423 5417 5410 5404 5398 5392 5386 5380 5374 5368 5363 5358 5354 5349 5344 5339 5333 5327 5320 5312 5305 5297 5288 5280 5271 5262 5255 5248 5241 5235 5229 5224 5220 5216 5213 5210 5208 5207
5443 5436 5428 5420 5413 5407 5400 5394 5389 5383 5378 5373 5367 5362 5358 5354 5349 5345 5340 5335 5330 5323 5316 5309 5302 5295 5287 5279 5271 5261 5253 5245 5237 5231 5225 5219 5214 5210 5206 5204 5201 5199
5432 5425 5417 5409 5403 5397 5391 5386 5381 5376 5371 5367 5362 5358 5354 5350 5346 5341 5336 5331 5326 5320 5313 5306 5299 5293 5285 5277 5270 5262 5253 5245 5237 5230 5223 5216 5211 5206 5202 5199 5196 5194
5420 5414 5406 5400 5394 5389 5383 5378 5374 5370 5366 5362 5358 5354 5351 5347 5342 5337 5332 5328 5323 5317 5310 5304 5297 5291 5284 5276 5269 5262 5254 5246 5238 5231 5224 5217 5210 5205 5200 5196 5192 5189
5410 5404 5397 5391 5386 5381 5376 5372 5368 5365 5362 5358 5355 5351 5347 5343 5339 5334 5329 5324 5319 5314 5308 5301 5294 5288 5282 5275 5268 5261 5254 5246 5239 5232 5225 5218 5212 5206 5200 5195 5190 5187
5400 5395 5389 5383 5379 5374 5370 5366 5363 5361 5358 5354 5351 5347 5343 5339 5335 5330 5326 5321 5316 5311 5305 5299 5292 5286 5280 5273 5267 5261 5254 5247 5240 5233 5226 5220 5214 5207 5202 5196 5191 5187
5391 5387 5382 5376 5372 5368 5365 5362 5360 5357 5354 5351 5348 5344 5340 5336 5332 5327 5322 5318 5313 5308 5303 5297 5290 5284 5278 5272 5266 5260 5254 5248 5241 5234 5228 5221 5215 5209 5204 5198 5193 5188
5383 5379 5375 5370 5367 5364 5361 5359 5357 5354 5351 5348 5344 5341 5337 5332 5328 5324 5319 5314 5310 5305 5300 5295 5289 5282 5277 5271 5265 5259 5254 5248 5241 5235 5229 5223 5217 5211 5205 5200 5195 5190
5376 5372 5369 5366 5363 5361 5358 5356 5353 5351 5347 5344 5341 5337 5333 5329 5325 5321 5316 5310 5306 5302 5297 5292 5287 5281 5275 5270 5264 5258 5252 5247 5241 5235 5229 5223 5218 5212 5207 5201 5196 5192
5370 5367 5364 5362 5360 5358 5355 5352 5350 5347 5344 5341 5338 5334 5330 5326 5322 5318 5314 5308 5302 5298 5293 5289 5284 5279 5273 5268 5262 5257 5251 5246 5240 5235 5229 5223 5218 5212 5207 5202 5197 5192